Other Surface Observations
Issued by NWS Missoula, MT

Home | Current Version | Previous Version | Text Only | Print | Product List | Glossary On
Versions: 1 2 3 4 5 6 7 8 9 10 11 12 13 14 15 16 17 18 19 20 21 22 23 24 25 26 27 28 29 30 31 32 33 34 35 36 37 38 39 40 41 42 43 44 45 46 47 48 49 50
935
SXUS55 KMSO 180213
OSOMSO
MONTANA AWOS SUMMARY
NATIONAL WEATHER SERVICE MISSOULA MT
713 PM MST WED JAN 17 2018

Montana AWOS Reports

ROUNDUP     |KRPX 180155Z AUTO 20008KT 40SM 02/M07 A2997 RMK AO1 T00221066




USA.gov is the U.S. government's official web portal to all federal, state and local government web resources and services.